OK2ILA-6 Weather Reports


time (UTC)temp
C
wind
direction
speed
KPH
gust
KPH
rain 1hr
cm
rain 24hr
cm
rain mn
cm
humidity
%
barometer
mb
20260507151003 22 0.0 0.0 0.00 0.00 0.00 52 1010.1
20260507150003 22 0.0 0.0 0.00 0.00 0.00 52 1010.2
20260507145002 22 0.0 0.0 0.00 0.00 0.00 53 1010.0
20260507144003 22 0.0 0.0 0.00 0.00 0.00 53 1010.0
20260507143003 22 0.0 0.0 0.00 0.00 0.00 53 1010.0
20260507142003 22 0.0 0.0 0.00 0.00 0.00 51 1009.9
20260507141002 23 0.0 0.0 0.00 0.00 0.00 50 1010.0
20260507140002 23 0.0 0.0 0.00 0.00 0.00 48 1009.8
20260507135003 22 0.0 0.0 0.00 0.00 0.00 47 1010.0
20260507134003 23 0.0 0.0 0.00 0.00 0.00 46 1010.0
20260507133002 23 0.0 0.0 0.00 0.00 0.00 48 1010.1
20260507132002 22 0.0 0.0 0.00 0.00 0.00 49 1010.1
20260507131003 22 0.0 0.0 0.00 0.00 0.00 48 1010.2
20260507130003 23 0.0 0.0 0.00 0.00 0.00 47 1010.2
20260507125003 23 0.0 0.0 0.00 0.00 0.00 46 1010.2
20260507124002 23 0.0 0.0 0.00 0.00 0.00 48 1010.2
20260507123002 23 0.0 0.0 0.00 0.00 0.00 46 1010.3
20260507122004 23 0.0 0.0 0.00 0.00 0.00 47 1010.2
20260507121003 23 0.0 0.0 0.00 0.00 0.00 44 1010.1
20260507120002 24 0.0 0.0 0.00 0.00 0.00 44 1010.2
20260507115002 24 0.0 0.0 0.00 0.00 0.00 44 1010.2
20260507114003 24 0.0 0.0 0.00 0.00 0.00 46 1010.2
20260507113003 23 0.0 0.0 0.00 0.00 0.00 46 1010.2
20260507112003 23 0.0 0.0 0.00 0.00 0.00 46 1010.4
20260507111002 24 0.0 0.0 0.00 0.00 0.00 46 1010.2
20260507110002 24 0.0 0.0 0.00 0.00 0.00 47 1010.2
20260507105003 23 0.0 0.0 0.00 0.00 0.00 48 1010.1
20260507104003 24 0.0 0.0 0.00 0.00 0.00 48 1010.0
20260507103002 23 0.0 0.0 0.00 0.00 0.00 49 1010.3
20260507102002 22 0.0 0.0 0.00 0.00 0.00 50 1010.2
20260507101003 22 0.0 0.0 0.00 0.00 0.00 54 1010.1
20260507100003 22 0.0 0.0 0.00 0.00 0.00 54 1010.0
20260507095003 21 0.0 0.0 0.00 0.00 0.00 54 1010.0
20260507094002 22 0.0 0.0 0.00 0.00 0.00 53 1010.0
20260507093002 22 0.0 0.0 0.00 0.00 0.00 54 1009.8
20260507092003 22 0.0 0.0 0.00 0.00 0.00 53 1009.8
20260507091003 23 0.0 0.0 0.00 0.00 0.00 54 1009.8
20260507090002 22 0.0 0.0 0.00 0.00 0.00 53 1009.6
20260507085002 22 0.0 0.0 0.00 0.00 0.00 54 1009.6
20260507084003 22 0.0 0.0 0.00 0.00 0.00 58 1009.4
20260507083003 22 0.0 0.0 0.00 0.00 0.00 58 1009.4
20260507082003 22 0.0 0.0 0.00 0.00 0.00 58 1009.4
20260507081002 22 0.0 0.0 0.00 0.00 0.00 58 1009.2
20260507080003 22 0.0 0.0 0.00 0.00 0.00 59 1009.2
20260507075003 21 0.0 0.0 0.00 0.00 0.00 64 1009.0
20260507074003 21 0.0 0.0 0.00 0.00 0.00 64 1009.0
20260507073003 21 0.0 0.0 0.00 0.00 0.00 66 1009.1
20260507072002 20 0.0 0.0 0.00 0.00 0.00 69 1009.0
20260507071003 19 0.0 0.0 0.00 0.00 0.00 70 1008.8
20260507070004 18 0.0 0.0 0.00 0.00 0.00 72 1008.8
20260507065003 17 0.0 0.0 0.00 0.00 0.00 72 1008.8
20260507064002 17 0.0 0.0 0.00 0.00 0.00 73 1008.8
20260507063002 17 0.0 0.0 0.00 0.00 0.00 74 1008.6
20260507062003 17 0.0 0.0 0.00 0.00 0.00 76 1008.4
20260507061003 16 0.0 0.0 0.00 0.00 0.00 78 1008.4
20260507060003 16 0.0 0.0 0.00 0.00 0.00 78 1008.4
20260507055002 16 0.0 0.0 0.00 0.00 0.00 79 1008.4
20260507054003 16 0.0 0.0 0.00 0.00 0.00 80 1008.2
20260507053003 15 0.0 0.0 0.00 0.00 0.00 82 1008.1
20260507052003 15 0.0 0.0 0.00 0.00 0.00 83 1008.0
20260507051002 15 0.0 0.0 0.00 0.00 0.00 84 1008.2
20260507050002 15 0.0 0.0 0.00 0.00 0.00 84 1007.9
20260507045003 14 0.0 0.0 0.00 0.00 0.00 86 1008.0
20260507044003 14 0.0 0.0 0.00 0.00 0.00 86 1007.8
20260507043003 14 0.0 0.0 0.00 0.00 0.00 86 1007.6
20260507042002 14 0.0 0.0 0.00 0.00 0.00 86 1007.5
20260507041003 14 0.0 0.0 0.00 0.00 0.00 86 1007.4
20260507040003 14 0.0 0.0 0.00 0.00 0.00 86 1007.4
20260507035003 14 0.0 0.0 0.00 0.00 0.00 86 1007.2